Flag for U.S.A. Weather past 2 weeks in Stillwater, Minnesota, U.S.A.

Now
66 °F

Passing clouds.


Feels Like: 66 °F
Forecast: 60 / 82 °F
Wind: No wind

Location: St. Paul Downtown Holman Field

Current Time: Aug 20, 2014 at 2:02:02 AM

Latest Report: Aug 20, 2014 at 12:53 AM


Visibility: 8 mi

Pressure: 29.78 "Hg

Humidity: 100%

Dew point: 66 °F

Location of StillwaterLocation

Historic Weather in Stillwater — Graph

°F

Stillwater temperature yesterday

Maximum temperature yesterday: 79 °F (at 3:53 PM)
Minimum temperature yesterday: 64 °F (at 5:53 AM)
Average temperature yesterday: 70 °F

Past Weeks' High & Low Weather Summary

 TemperatureHumidityPressure
High86 °F (Aug 18, 4:53 PM)100% (Aug 12, 5:53 AM)30.14 "Hg (Aug 12, 5:53 AM)
Low56 °F (Aug 12, 5:53 AM)35% (Aug 12, 4:53 PM)29.62 "Hg (Aug 18, 7:53 PM)
Average72 °F71%29.97 "Hg
* Reported Aug 4 11:53 PM — Aug 19 11:53 PM, Stillwater, Weather by CustomWeather, © 2014

Note: Actual official high and low records may vary slightly from our data, if they occured in-between our weather recording intervals... More about our weather records

Advertising

Stillwater weather history for previous 24 hours

 ConditionsComfort  
Time TempWeatherWind HumidityBarometerVisibility
11:53 PM
Aug 19
67 °FPassing clouds.No wind97%29.78 "Hg8 mi
10:53 PM67 °FPassing clouds.3 mph100%29.78 "Hg7 mi
9:53 PM68 °FPassing clouds.No wind96%29.76 "Hg8 mi
8:53 PM70 °FSunny.No wind93%29.75 "Hg10 mi
7:53 PM71 °FBroken clouds.3 mph87%29.73 "Hg10 mi
6:53 PM71 °FLight rain. Overcast.No wind87%29.74 "Hg7 mi
5:53 PM78 °FBroken clouds.3 mph60%29.72 "Hg10 mi
4:53 PM77 °FMore clouds than sun.5 mph58%29.72 "Hg10 mi
3:53 PM79 °FBroken clouds.8 mph54%29.71 "Hg10 mi
2:53 PM77 °FPartly sunny.8 mph56%29.72 "Hg10 mi
1:53 PM75 °FBroken clouds.10 mph62%29.73 "Hg10 mi
12:53 PM74 °FOvercast.10 mph62%29.73 "Hg10 mi
11:53 AM74 °FPartly sunny.12 mph67%29.73 "Hg10 mi
10:53 AM72 °FBroken clouds.10 mph71%29.74 "Hg10 mi
9:53 AM69 °FPartly sunny.13 mph81%29.72 "Hg10 mi
8:53 AM68 °FScattered clouds.9 mph84%29.71 "Hg10 mi
7:53 AM66 °FPartly sunny.8 mph90%29.70 "Hg10 mi
6:53 AM65 °FClear.10 mph91%29.69 "Hg10 mi
5:53 AM64 °FClear.6 mph94%29.67 "Hg10 mi
4:53 AM65 °FClear.8 mph94%29.66 "Hg10 mi
3:53 AM65 °FClear.6 mph94%29.65 "Hg10 mi
2:53 AM66 °FPassing clouds.3 mph93%29.64 "Hg10 mi
Weather by CustomWeather, © 2014

See weather overviewHow to use our weather pages